When you browse on this site, cookies collect data to enhance your experience and personalize the content and advertising you see.
Visit our Privacy Policy to learn more. By continuing to use the site, you agree to this use of cookies and data.
  • In Czech Republic
  • List of Countries
  • For 7 days
  • Water Temperature
  • Weather Map
  • Weather Widgets
  • user-avatar
    Login

    Hourly Weather Erfurt

    Today, 18 October, Friday

    Time Temperature Precipitation Wind Pressure Humidity
    00:00 +14°C° 0.2 mm 3 mps 742 mmHg 91%
    01:00 +14°C° 0 mm 3 mps 742 mmHg 92%
    02:00 +14°C° 0 mm 3 mps 741 mmHg 92%
    03:00 +14°C° 0 mm 3 mps 741 mmHg 91%
    04:00 +14°C° 0 mm 3 mps 741 mmHg 91%
    05:00 +14°C° 0 mm 3 mps 741 mmHg 91%
    06:00 +13°C° 0 mm 3 mps 741 mmHg 91%
    07:00 +13°C° 0 mm 3 mps 741 mmHg 89%
    08:00 +14°C° 0 mm 4 mps 741 mmHg 85%
    09:00 +15°C° 0 mm 5 mps 741 mmHg 81%
    10:00 +16°C° 0 mm 6 mps 740 mmHg 77%
    11:00 +17°C° 0.1 mm 6 mps 740 mmHg 74%
    12:00 +17°C° 0.1 mm 7 mps 740 mmHg 71%
    13:00 +18°C° 0.1 mm 7 mps 740 mmHg 68%
    14:00 +17°C° 0.5 mm 6 mps 740 mmHg 71%
    15:00 +16°C° 0.5 mm 6 mps 740 mmHg 73%
    16:00 +15°C° 0.5 mm 5 mps 739 mmHg 76%
    17:00 +14°C° 0 mm 5 mps 740 mmHg 79%
    18:00 +13°C° 0 mm 4 mps 740 mmHg 82%
    19:00 +12°C° 0 mm 4 mps 740 mmHg 85%
    20:00 +11°C° 0 mm 3 mps 741 mmHg 84%
    21:00 +11°C° 0 mm 3 mps 741 mmHg 84%
    22:00 +10°C° 0 mm 3 mps 741 mmHg 83%
    23:00 +10°C° 0 mm 3 mps 741 mmHg 83%

    Tomorrow, 19 October, Saturday

    Time Temperature Precipitation Wind Pressure Humidity
    00:00 +10°C° 0 mm 2 mps 741 mmHg 83%
    01:00 +10°C° 0 mm 2 mps 741 mmHg 83%
    02:00 +10°C° 0 mm 2 mps 741 mmHg 85%
    03:00 +10°C° 0 mm 2 mps 741 mmHg 86%
    04:00 +10°C° 0 mm 2 mps 741 mmHg 88%
    05:00 +12°C° 0.1 mm 2 mps 741 mmHg 88%
    06:00 +12°C° 0.1 mm 2 mps 741 mmHg 88%
    07:00 +11°C° 0.1 mm 3 mps 741 mmHg 88%
    08:00 +12°C° 0.4 mm 3 mps 740 mmHg 87%
    09:00 +12°C° 0.4 mm 3 mps 740 mmHg 87%
    10:00 +12°C° 0.4 mm 3 mps 740 mmHg 86%
    11:00 +13°C° 0.2 mm 3 mps 740 mmHg 85%
    12:00 +13°C° 0.2 mm 3 mps 740 mmHg 83%
    13:00 +14°C° 0.2 mm 3 mps 740 mmHg 82%
    14:00 +14°C° 0.1 mm 3 mps 740 mmHg 82%
    15:00 +14°C° 0.1 mm 3 mps 740 mmHg 82%
    16:00 +14°C° 0.1 mm 3 mps 739 mmHg 82%
    17:00 +13°C° 0 mm 3 mps 739 mmHg 84%
    18:00 +13°C° 0 mm 3 mps 740 mmHg 87%
    19:00 +13°C° 0 mm 2 mps 740 mmHg 89%
    20:00 +13°C° 0 mm 2 mps 740 mmHg 90%
    21:00 +13°C° 0 mm 2 mps 740 mmHg 91%
    22:00 +11°C° 0 mm 3 mps 740 mmHg 92%
    23:00 +12°C° 0 mm 2 mps 740 mmHg 92%

    Day after tomorrow, 20 October, Sunday

    Time Temperature Precipitation Wind Pressure Humidity
    00:00 +13°C° 0 mm 2 mps 741 mmHg 92%
    01:00 +13°C° 0 mm 2 mps 741 mmHg 91%
    02:00 +13°C° 0 mm 2 mps 740 mmHg 91%
    03:00 +13°C° 0 mm 2 mps 740 mmHg 91%
    04:00 +13°C° 0 mm 2 mps 740 mmHg 91%
    05:00 +13°C° 0 mm 1 mps 740 mmHg 92%
    06:00 +13°C° 0 mm 1 mps 740 mmHg 92%
    07:00 +12°C° 0 mm 1 mps 740 mmHg 93%
    08:00 +14°C° 0 mm 1 mps 740 mmHg 85%
    09:00 +16°C° 0 mm 2 mps 740 mmHg 78%
    10:00 +17°C° 0 mm 3 mps 740 mmHg 71%
    11:00 +19°C° 0 mm 3 mps 740 mmHg 65%
    12:00 +20°C° 0 mm 4 mps 740 mmHg 59%
    13:00 +22°C° 0 mm 5 mps 739 mmHg 54%
    14:00 +21°C° 0 mm 4 mps 739 mmHg 57%
    15:00 +20°C° 0 mm 3 mps 739 mmHg 61%
    16:00 +19°C° 0 mm 3 mps 738 mmHg 65%
    17:00 +18°C° 0 mm 2 mps 739 mmHg 70%
    18:00 +17°C° 0 mm 2 mps 739 mmHg 75%
    19:00 +15°C° 0 mm 2 mps 739 mmHg 80%
    20:00 +15°C° 0 mm 2 mps 739 mmHg 81%
    21:00 +15°C° 0 mm 2 mps 739 mmHg 83%
    22:00 +14°C° 0 mm 1 mps 739 mmHg 84%
    23:00 +14°C° 0 mm 2 mps 739 mmHg 83%

    21 October, Monday

    Time Temperature Precipitation Wind Pressure Humidity
    00:00 +14°C° 0 mm 2 mps 739 mmHg 83%
    01:00 +14°C° 0 mm 2 mps 740 mmHg 82%
    02:00 +14°C° 0 mm 2 mps 740 mmHg 83%
    03:00 +13°C° 0 mm 3 mps 740 mmHg 84%
    04:00 +13°C° 0 mm 3 mps 740 mmHg 85%
    05:00 +14°C° 0 mm 4 mps 741 mmHg 79%
    06:00 +14°C° 0 mm 5 mps 742 mmHg 74%
    07:00 +15°C° 0 mm 5 mps 742 mmHg 69%
    08:00 +15°C° 0 mm 5 mps 743 mmHg 66%
    09:00 +17°C° 0 mm 4 mps 744 mmHg 64%
    10:00 +18°C° 0 mm 4 mps 744 mmHg 61%
    11:00 +17°C° 0 mm 4 mps 745 mmHg 63%
    12:00 +17°C° 0 mm 4 mps 745 mmHg 65%
    13:00 +15°C° 0 mm 4 mps 746 mmHg 67%
    14:00 +15°C° 0 mm 4 mps 746 mmHg 66%
    15:00 +14°C° 0 mm 4 mps 746 mmHg 66%
    16:00 +13°C° 0 mm 4 mps 746 mmHg 65%
    17:00 +13°C° 0 mm 4 mps 747 mmHg 67%
    18:00 +13°C° 0 mm 4 mps 747 mmHg 69%
    19:00 +12°C° 0 mm 4 mps 748 mmHg 71%
    20:00 +12°C° 0 mm 3 mps 748 mmHg 75%
    21:00 +11°C° 0 mm 3 mps 748 mmHg 79%
    22:00 +10°C° 0 mm 3 mps 749 mmHg 83%
    23:00 +10°C° 0 mm 2 mps 749 mmHg 82%

    22 October, Tuesday

    Time Temperature Precipitation Wind Pressure Humidity
    00:00 +12°C° 0 mm 2 mps 749 mmHg 81%
    01:00 +12°C° 0 mm 2 mps 749 mmHg 79%
    02:00 +10°C° 0 mm 2 mps 749 mmHg 83%
    03:00 +10°C° 0 mm 1 mps 749 mmHg 86%
    04:00 +10°C° 0 mm 1 mps 749 mmHg 89%
    05:00 +9°C° 0 mm 1 mps 750 mmHg 90%
    06:00 +9°C° 0 mm 1 mps 750 mmHg 90%
    07:00 +9°C° 0 mm 1 mps 750 mmHg 90%
    08:00 +11°C° 0 mm 1 mps 750 mmHg 84%
    09:00 +12°C° 0 mm 1 mps 751 mmHg 78%
    10:00 +13°C° 0 mm 0 mps 751 mmHg 72%
    11:00 +15°C° 0 mm 1 mps 751 mmHg 68%
    12:00 +15°C° 0 mm 1 mps 751 mmHg 65%
    13:00 +16°C° 0 mm 1 mps 751 mmHg 62%
    14:00 +16°C° 0 mm 1 mps 751 mmHg 64%
    15:00 +16°C° 0 mm 1 mps 750 mmHg 66%
    16:00 +16°C° 0 mm 1 mps 750 mmHg 68%
    17:00 +14°C° 0 mm 1 mps 750 mmHg 73%
    18:00 +13°C° 0 mm 1 mps 750 mmHg 78%
    19:00 +12°C° 0 mm 2 mps 750 mmHg 84%
    20:00 +11°C° 0 mm 1 mps 750 mmHg 86%
    21:00 +11°C° 0 mm 1 mps 750 mmHg 88%
    22:00 +10°C° 0 mm 1 mps 750 mmHg 90%
    23:00 +10°C° 0 mm 1 mps 750 mmHg 91%

    23 October, Wednesday

    Time Temperature Precipitation Wind Pressure Humidity
    00:00 +10°C° 0 mm 1 mps 750 mmHg 92%
    01:00 +10°C° 0 mm 1 mps 749 mmHg 93%
    02:00 +10°C° 0 mm 1 mps 749 mmHg 93%
    03:00 +9°C° 0 mm 1 mps 749 mmHg 94%
    04:00 +9°C° 0 mm 1 mps 749 mmHg 95%
    05:00 +9°C° 0 mm 1 mps 748 mmHg 95%
    06:00 +9°C° 0 mm 1 mps 748 mmHg 95%
    07:00 +9°C° 0 mm 1 mps 748 mmHg 95%
    08:00 +10°C° 0 mm 1 mps 748 mmHg 90%
    09:00 +12°C° 0 mm 1 mps 747 mmHg 84%
    10:00 +13°C° 0 mm 2 mps 747 mmHg 78%
    11:00 +14°C° 0 mm 2 mps 747 mmHg 74%
    12:00 +16°C° 0 mm 3 mps 746 mmHg 70%
    13:00 +17°C° 0 mm 3 mps 746 mmHg 66%
    14:00 +17°C° 0 mm 3 mps 745 mmHg 69%
    15:00 +17°C° 0 mm 2 mps 745 mmHg 71%
    16:00 +17°C° 0 mm 2 mps 744 mmHg 74%
    17:00 +15°C° 0 mm 2 mps 744 mmHg 80%
    18:00 +14°C° 0 mm 2 mps 744 mmHg 86%
    19:00 +13°C° 0 mm 1 mps 744 mmHg 91%
    20:00 +12°C° 0 mm 1 mps 744 mmHg 92%
    21:00 +12°C° 0 mm 1 mps 744 mmHg 92%
    22:00 +10°C° 0 mm 0 mps 744 mmHg 92%
    23:00 +10°C° 0 mm 0 mps 744 mmHg 93%
    Show more